Wind_Speed
43 43 43 43 42 42 43 43 43 43 42 42 42 43 43 43 43 44 43 43 42 42 42 42 42 41 41 41 41 41 41 42 40 40 39 40 40 39
42 41 41 41 41 41 41 42 42 42 40 40 41 42 42 42 43 43 42 42 41 41 40 40 39 39 39 40 41 41 41 40 39 39 39 39 39 38
40 40 40 40 41 41 41 41 41 41 40 40 40 41 41 41 41 41 41 40 39 38 38 37 37 37 38 38 38 39 38 38 38 37 38 38 39 38
40 40 40 39 39 39 39 40 40 40 40 39 39 39 39 39 39 38 38 37 37 37 36 36 35 35 36 36 36 37 37 36 36 37 38 37 38 37
39 39 38 38 37 37 37 37 38 38 38 37 37 37 37 37 36 35 35 35 35 35 35 35 35 34 35 34 34 35 36 36 36 36 37 37 37 37
38 37 36 36 36 35 35 36 36 35 35 36 36 36 36 36 35 34 34 35 35 35 35 34 34 34 34 34 33 34 34 35 36 37 37 37 37 37
36 35 34 34 34 34 34 34 35 35 35 34 35 35 35 35 35 34 34 34 34 35 35 34 34 34 34 33 32 33 33 34 35 37 38 38 38 37
36 35 34 34 34 33 33 33 33 34 34 33 34 33 34 35 35 34 34 34 34 35 35 34 33 33 33 33 32 32 33 34 35 36 37 37 37 37
35 35 35 34 34 33 33 33 33 33 33 33 33 32 32 33 33 33 34 33 34 33 33 33 33 32 32 32 32 32 32 32 33 33 34 35 35 35
35 34 34 34 33 33 33 33 32 32 33 32 32 31 31 31 31 31 32 32 32 32 32 31 31 31 31 31 31 30 30 30 31 31 31 32 33 33
33 33 32 32 32 32 32 32 31 31 31 31 30 30 30 29 29 29 29 29 29 29 30 31 31 31 31 30 29 28 29 29 29 30 31 31 31 31
32 31 30 30 30 30 30 30 29 29 30 30 30 29 28 28 28 27 27 27 27 27 28 29 30 29 29 28 28 28 28 28 29 29 29 30 29 29
31 31 30 30 30 29 29 28 28 28 28 28 28 28 28 27 27 25 24 24 25 25 26 27 27 27 28 27 27 27 27 27 28 28 28 28 28 28
29 29 29 28 28 28 28 27 26 27 27 27 27 27 27 26 25 23 22 23 24 24 25 25 25 26 26 27 27 27 28 28 28 27 27 27 28 28
28 28 27 27 27 27 28 27 27 27 26 26 26 26 25 24 23 23 22 23 24 24 24 24 24 24 25 26 27 27 27 27 27 27 27 27 28 28
27 27 27 27 27 27 27 27 27 25 25 25 26 25 25 24 23 23 23 23 24 23 23 23 23 24 24 24 25 25 25 25 25 26 25 25 26 26
25 25 26 26 26 26 26 26 26 25 24 24 25 25 25 24 23 22 23 23 23 23 22 22 22 22 22 22 22 22 22 23 24 24 24 24 24 24
23 23 23 24 24 24 24 25 25 25 24 24 24 24 24 23 23 22 22 21 22 22 21 21 21 21 21 20 21 21 21 22 23 23 23 23 22 22
21 21 21 22 22 22 23 23 23 23 23 23 23 22 23 23 22 21 20 20 21 21 21 21 21 21 20 20 19 20 20 21 22 22 22 21 20 20
19 19 19 19 20 21 21 21 21 21 21 21 21 21 21 21 20 20 19 20 21 21 21 20 20 19 19 19 18 18 20 21 21 21 20 20 19 19
17 17 17 18 18 19 20 19 19 19 19 20 20 20 20 20 19 19 19 19 20 20 20 19 19 19 19 19 18 18 18 19 20 19 18 18 18 17
17 17 17 17 18 18 18 18 17 17 17 18 18 18 19 18 18 18 18 18 18 18 18 18 18 19 20 19 18 17 17 16 17 16 17 16 15 14
17 17 17 17 17 18 18 18 17 17 16 16 16 16 16 17 17 17 17 18 17 17 17 17 18 19 19 18 17 16 15 14 14 14 15 15 14 13
Wind_Direction
268 269 269 269 269 269 268 268 269 269 268 270 270 271 271 273 273 274 274 273 271 268 268 269 269 268 268 267 266 265 263 262 262 262 263 264 264 265
268 269 270 269 268 269 269 268 268 268 269 270 270 271 272 273 273 274 273 272 270 267 267 268 269 268 268 268 267 265 263 261 261 261 262 262 263 264
270 271 270 270 269 268 268 268 269 270 270 270 270 271 272 274 275 274 273 272 268 266 266 266 268 269 269 269 267 266 263 261 261 261 261 261 262 263
270 271 270 269 268 268 268 268 268 270 270 270 269 271 271 273 274 274 273 271 267 265 265 266 268 270 271 270 268 265 263 262 261 261 260 261 262 262
270 269 269 269 269 269 269 268 269 270 269 269 269 269 270 272 274 273 272 270 267 266 265 266 269 271 272 271 270 267 264 262 262 262 261 260 261 262
269 268 268 269 269 269 269 268 269 269 269 269 268 268 270 272 273 271 271 269 267 267 265 267 269 271 272 272 271 268 266 263 263 262 261 260 261 262
269 268 268 269 270 269 269 269 268 268 269 269 268 269 270 272 273 271 270 270 268 267 266 267 269 270 271 270 269 269 267 266 264 262 261 261 262 262
269 268 269 270 270 269 268 269 268 268 269 268 268 270 272 273 272 269 270 269 267 266 267 269 270 271 271 270 271 270 270 268 267 263 262 261 262 262
268 267 268 268 268 267 268 269 268 267 267 266 267 269 272 274 271 269 269 267 265 266 267 269 270 270 270 271 271 271 270 268 266 264 262 262 262 263
267 266 266 267 266 266 266 268 267 267 267 267 267 268 271 273 271 271 269 266 266 267 268 269 270 271 271 270 270 270 268 268 266 266 265 264 263 261
266 265 265 265 265 265 265 265 267 267 267 267 267 269 271 270 271 270 268 267 267 267 268 268 269 270 271 270 269 269 268 267 268 268 266 264 261 261
264 264 264 264 264 265 265 265 266 268 269 268 267 269 271 270 271 271 269 268 268 269 270 270 270 269 267 266 268 269 269 267 268 268 266 265 263 263
263 263 263 264 263 264 265 266 267 269 269 267 266 268 270 270 272 271 271 270 270 272 273 273 271 268 266 265 268 270 270 268 267 265 266 266 265 265
262 261 261 261 262 263 263 264 266 269 269 267 266 269 269 270 270 270 270 271 271 273 274 273 271 269 268 268 269 269 271 271 268 266 267 268 266 265
260 260 261 260 261 262 261 262 265 268 267 266 265 266 267 266 266 267 270 272 273 275 276 273 272 271 270 270 271 271 271 270 270 269 268 268 267 266
259 260 260 259 260 260 261 263 265 267 267 267 266 265 265 265 264 266 269 271 272 274 275 274 274 274 273 273 273 273 272 272 272 271 271 270 268 266
259 259 258 256 257 259 260 262 264 266 267 268 267 264 266 266 266 267 269 269 270 270 271 274 275 274 274 274 273 273 274 274 274 273 272 271 269 267
259 259 257 256 257 258 260 262 264 265 266 267 266 265 264 263 264 268 268 266 268 269 270 271 271 271 274 274 274 275 275 275 274 272 272 272 270 266
258 258 257 257 257 259 261 262 262 262 264 267 267 265 263 261 263 266 265 263 265 267 268 270 272 273 275 275 275 276 275 274 274 272 271 269 267 265
257 259 258 259 259 261 263 262 261 262 264 267 267 265 262 260 262 264 264 264 265 265 265 269 273 275 275 276 276 277 276 276 275 271 266 265 265 264
256 259 260 262 263 263 262 262 263 265 266 267 265 265 262 259 261 262 264 266 264 263 264 268 271 273 274 275 277 277 276 275 274 270 261 260 261 262
256 259 262 264 264 263 262 264 265 266 266 265 265 264 259 259 260 262 265 266 265 263 264 268 269 271 274 276 277 277 276 273 271 265 258 257 257 257
258 262 266 267 265 264 264 265 265 263 263 265 265 265 262 260 261 263 266 266 266 266 267 268 269 272 274 275 277 277 275 270 263 258 257 254 254 257
Height
5627 5626 5625 5624 5623 5622 5622 5621 5621 5622 5623 5621 5620 5619 5618 5617 5616 5615 5614 5613 5613 5613 5613 5613 5614 5614 5614 5614 5614 5615 5615 5617 5619 5620 5622 5623 5623 5624
5616 5615 5614 5613 5612 5611 5610 5610 5609 5610 5611 5610 5609 5608 5607 5606 5604 5603 5603 5602 5601 5601 5602 5602 5602 5602 5603 5603 5603 5603 5604 5605 5607 5609 5610 5612 5613 5613
5605 5604 5603 5601 5600 5600 5599 5599 5598 5598 5599 5599 5597 5597 5596 5595 5593 5592 5591 5591 5590 5590 5591 5591 5592 5592 5592 5592 5591 5592 5593 5594 5596 5598 5599 5600 5602 5603
5593 5592 5591 5590 5589 5588 5588 5588 5587 5587 5587 5587 5587 5586 5585 5584 5583 5582 5581 5580 5580 5580 5581 5581 5581 5581 5581 5581 5581 5581 5582 5584 5585 5587 5589 5590 5591 5592
5582 5581 5581 5580 5579 5578 5577 5577 5577 5577 5576 5576 5576 5575 5575 5573 5572 5572 5571 5570 5570 5571 5571 5571 5572 5572 5572 5571 5571 5571 5572 5574 5575 5577 5578 5580 5581 5581
5571 5571 5570 5570 5569 5568 5567 5567 5567 5567 5566 5566 5566 5565 5565 5564 5563 5562 5561 5561 5561 5561 5561 5562 5562 5562 5562 5562 5562 5562 5563 5563 5565 5566 5568 5569 5570 5571
5561 5560 5560 5560 5559 5558 5558 5558 5558 5557 5557 5556 5556 5556 5555 5554 5553 5553 5552 5552 5552 5552 5552 5552 5553 5553 5553 5553 5553 5553 5553 5553 5554 5556 5557 5558 5559 5560
5551 5550 5550 5550 5549 5549 5549 5548 5548 5548 5548 5547 5547 5547 5546 5545 5544 5543 5543 5543 5544 5544 5543 5544 5544 5544 5544 5544 5544 5543 5543 5543 5544 5544 5545 5547 5548 5549
5540 5540 5540 5540 5540 5540 5539 5539 5539 5539 5539 5539 5539 5538 5538 5536 5535 5535 5534 5534 5534 5534 5535 5536 5535 5535 5535 5534 5534 5534 5534 5534 5533 5534 5534 5536 5537 5538
5531 5531 5531 5531 5530 5530 5530 5530 5530 5530 5530 5530 5530 5529 5529 5528 5527 5526 5525 5525 5526 5526 5526 5527 5527 5526 5526 5525 5525 5524 5525 5524 5524 5525 5525 5526 5527 5528
5521 5521 5521 5521 5521 5521 5521 5521 5521 5522 5521 5521 5521 5520 5519 5519 5518 5518 5517 5517 5518 5518 5518 5518 5518 5517 5517 5516 5516 5515 5516 5516 5516 5516 5516 5517 5517 5518
5511 5512 5512 5512 5513 5512 5513 5513 5513 5513 5513 5512 5512 5511 5511 5511 5510 5510 5510 5510 5510 5511 5510 5509 5509 5508 5509 5508 5508 5508 5507 5507 5507 5507 5507 5508 5508 5509
5502 5502 5503 5504 5504 5504 5505 5505 5505 5505 5504 5504 5504 5504 5503 5503 5503 5502 5502 5503 5503 5503 5502 5501 5500 5500 5500 5501 5500 5499 5499 5499 5499 5499 5499 5499 5499 5500
5493 5494 5495 5495 5496 5497 5497 5497 5497 5497 5497 5496 5497 5496 5496 5496 5496 5495 5495 5495 5495 5495 5494 5493 5492 5492 5492 5492 5493 5492 5491 5490 5490 5490 5491 5490 5490 5491
5485 5486 5487 5487 5488 5489 5489 5489 5489 5490 5490 5490 5490 5489 5489 5489 5489 5489 5488 5488 5488 5487 5486 5485 5484 5484 5484 5484 5485 5484 5483 5483 5482 5482 5482 5482 5482 5482
5477 5478 5478 5479 5480 5481 5482 5482 5482 5482 5483 5483 5483 5482 5482 5482 5482 5482 5482 5481 5481 5480 5479 5478 5477 5477 5477 5476 5476 5476 5475 5475 5475 5474 5474 5473 5473 5473
5469 5470 5470 5471 5472 5473 5474 5474 5475 5475 5475 5475 5475 5475 5475 5475 5475 5474 5474 5474 5474 5474 5473 5472 5471 5470 5470 5469 5469 5469 5468 5467 5466 5466 5466 5466 5466 5466
5462 5462 5463 5464 5465 5466 5467 5467 5467 5468 5468 5468 5468 5468 5468 5468 5467 5467 5467 5467 5467 5467 5466 5465 5465 5464 5464 5463 5462 5462 5461 5460 5459 5458 5458 5458 5459 5459
5455 5456 5457 5458 5459 5459 5460 5460 5461 5461 5461 5461 5461 5461 5461 5461 5461 5460 5460 5460 5460 5460 5459 5459 5458 5458 5458 5458 5457 5454 5454 5453 5452 5452 5452 5452 5452 5452
5450 5450 5451 5452 5452 5453 5453 5454 5454 5454 5454 5454 5454 5454 5454 5454 5454 5454 5454 5454 5453 5453 5453 5452 5452 5451 5451 5451 5450 5449 5446 5446 5445 5445 5445 5445 5446 5446
5445 5446 5446 5447 5447 5447 5448 5448 5448 5448 5448 5448 5448 5448 5448 5448 5448 5448 5448 5447 5447 5447 5447 5447 5446 5445 5444 5444 5444 5443 5441 5439 5439 5439 5440 5440 5441 5441
5440 5441 5442 5442 5442 5442 5442 5442 5442 5442 5442 5442 5442 5442 5442 5442 5442 5442 5442 5442 5441 5441 5441 5441 5440 5439 5439 5438 5438 5437 5436 5435 5434 5434 5434 5436 5436 5436
5436 5437 5437 5437 5437 5437 5437 5437 5437 5437 5437 5437 5437 5437 5437 5437 5437 5437 5436 5436 5436 5435 5435 5435 5434 5434 5433 5432 5432 5431 5431 5430 5430 5430 5430 5430 5431 5431